ヴィルト第2彗星

81P/Wild 2 (2022)

English version
Home page
Updated on April 15, 2023

---------------------------------------------------------------------

・ プロフィール

・ 写真集

・ 軌道要素

Epoch 2023 Feb. 25.0 TT = JDT 2460000.5
T 2022 Dec. 15.61331 TT                                 Rudenko
q   1.5984363            (2000.0)            P               Q
n   0.15350886     Peri.   41.62463     -0.99847611     -0.03889645
a   3.4544619      Node   136.09880     +0.02222869     -0.93275660
e   0.5372836      Incl.    3.23641     +0.05051091     -0.35840229
P   6.42
>From 2209 observations 2014 Oct. 18-2023 Mar. 19, mean residual 0".6.
     Nongravitational parameters A1 = +0.44, A2 = +0.3131.

・ 星図

・ 光度変化

        m1 = 6.3 + 5 logΔ + 18.0 log r(t + 20)  [  ,95]  (              〜2023年 3月20日)
        m1 = 8.2 + 5 logΔ + 12.5 log r          [95,  ]  (2023年 3月20日〜              )

---------------------------------------------------------------------

軌道要素はM.P.E.C. 2023-F81に掲載されたものです。
星図はステラナビゲータ Ver.10 (アストロアーツ) で作成したものです。
光度グラフはComet for Windowsで作成したものです。

---------------------------------------------------------------------

Copyright(C) Seiichi Yoshida (comet@aerith.net). All rights reserved.